| time (UTC) | temp C | wind direction | speed KPH | gust KPH | rain 1hr cm | rain 24hr cm | rain mn cm | humidity % | barometer mb |
| 20260508020524 | 8 | 0.0 | 0.0 | 0.00 | 0.00 | 0.00 | 79 | 1015.3 | |
| 20260508015523 | 8 | 0.0 | 0.0 | 0.00 | 0.00 | 0.00 | 77 | 1015.2 | |
| 20260508014524 | 8 | 0.0 | 0.0 | 0.00 | 0.00 | 0.00 | 76 | 1015.2 | |
| 20260508013523 | 9 | 0.0 | 0.0 | 0.00 | 0.00 | 0.00 | 76 | 1015.1 | |
| 20260508012524 | 9 | 0.0 | 0.0 | 0.00 | 0.00 | 0.00 | 74 | 1015.1 | |
| 20260508011604 | 9 | 0.0 | 0.0 | 0.00 | 0.00 | 0.00 | 73 | 1015.0 | |
| 20260508010524 | 10 | 0.0 | 0.0 | 0.00 | 0.00 | 0.00 | 69 | 1015.0 | |
| 20260508005523 | 11 | 0.0 | 0.0 | 0.00 | 0.00 | 0.00 | 66 | 1014.9 | |
| 20260508004544 | 11 | 0.0 | 0.0 | 0.00 | 0.00 | 0.00 | 67 | 1014.9 | |
| 20260508003523 | 12 | 0.0 | 0.0 | 0.00 | 0.00 | 0.00 | 60 | 1014.9 | |
| 20260508002524 | 12 | 0.0 | 0.0 | 0.00 | 0.00 | 0.00 | 56 | 1014.9 | |
| 20260508001543 | 12 | 205 | 0.0 | 1.6 | 0.00 | 0.00 | 0.00 | 58 | 1014.8 |
| 20260508000604 | 13 | 0.0 | 0.0 | 0.00 | 0.00 | 0.00 | 53 | 1014.7 | |
| 20260507235524 | 14 | 209 | 1.6 | 4.8 | 0.00 | 0.00 | 0.00 | 46 | 1014.7 |
| 20260507234523 | 14 | 188 | 4.8 | 6.4 | 0.00 | 0.00 | 0.00 | 43 | 1014.7 |
| 20260507233524 | 15 | 180 | 6.4 | 11.3 | 0.00 | 0.00 | 0.00 | 41 | 1014.7 |
| 20260507232524 | 16 | 214 | 4.8 | 8.0 | 0.00 | 0.00 | 0.00 | 39 | 1014.7 |
| 20260507231524 | 16 | 205 | 4.8 | 6.4 | 0.00 | 0.00 | 0.00 | 40 | 1014.8 |
| 20260507230524 | 16 | 277 | 1.6 | 4.8 | 0.00 | 0.00 | 0.00 | 37 | 1014.8 |
| 20260507225523 | 16 | 295 | 1.6 | 4.8 | 0.00 | 0.00 | 0.00 | 37 | 1014.8 |
| 20260507224524 | 16 | 233 | 8.0 | 16.1 | 0.00 | 0.00 | 0.00 | 37 | 1014.9 |
| 20260507223524 | 17 | 225 | 8.0 | 11.3 | 0.00 | 0.00 | 0.00 | 37 | 1014.9 |
| 20260507222523 | 18 | 332 | 4.8 | 9.7 | 0.00 | 0.00 | 0.00 | 34 | 1014.9 |
| 20260507221524 | 18 | 229 | 3.2 | 6.4 | 0.00 | 0.00 | 0.00 | 32 | 1014.9 |
| 20260507220524 | 17 | 319 | 3.2 | 6.4 | 0.00 | 0.00 | 0.00 | 34 | 1014.8 |
| 20260507215524 | 17 | 286 | 4.8 | 14.5 | 0.00 | 0.00 | 0.00 | 35 | 1014.8 |
| 20260507214524 | 17 | 228 | 4.8 | 9.7 | 0.00 | 0.00 | 0.00 | 36 | 1014.7 |
| 20260507213524 | 17 | 263 | 6.4 | 9.7 | 0.00 | 0.00 | 0.00 | 34 | 1014.9 |
| 20260507212524 | 17 | 227 | 6.4 | 11.3 | 0.00 | 0.00 | 0.00 | 36 | 1015.0 |
| 20260507211524 | 17 | 234 | 6.4 | 12.9 | 0.00 | 0.00 | 0.00 | 36 | 1015.2 |
| 20260507210524 | 17 | 275 | 6.4 | 11.3 | 0.00 | 0.00 | 0.00 | 37 | 1015.2 |
| 20260507205524 | 16 | 207 | 8.0 | 12.9 | 0.00 | 0.00 | 0.00 | 40 | 1015.2 |
| 20260507204604 | 16 | 258 | 9.7 | 14.5 | 0.00 | 0.00 | 0.00 | 38 | 1015.2 |
| 20260507203524 | 16 | 241 | 6.4 | 12.9 | 0.00 | 0.00 | 0.00 | 37 | 1015.2 |
| 20260507202524 | 17 | 5 | 9.7 | 12.9 | 0.00 | 0.00 | 0.00 | 39 | 1015.3 |
| 20260507201524 | 17 | 8 | 8.0 | 16.1 | 0.00 | 0.00 | 0.00 | 37 | 1015.4 |
| 20260507200524 | 16 | 119 | 4.8 | 8.0 | 0.00 | 0.00 | 0.00 | 37 | 1015.4 |
| 20260507195524 | 15 | 7 | 9.7 | 17.7 | 0.00 | 0.00 | 0.00 | 39 | 1015.5 |
| 20260507194524 | 16 | 281 | 6.4 | 14.5 | 0.00 | 0.00 | 0.00 | 39 | 1015.6 |
| 20260507193524 | 16 | 11 | 4.8 | 12.9 | 0.00 | 0.00 | 0.00 | 39 | 1015.6 |
| 20260507192645 | 17 | 214 | 6.4 | 12.9 | 0.00 | 0.00 | 0.00 | 39 | 1015.7 |
| 20260507191524 | 16 | 13 | 8.0 | 16.1 | 0.00 | 0.00 | 0.00 | 40 | 1015.7 |
| 20260507190524 | 15 | 7 | 9.7 | 20.9 | 0.00 | 0.00 | 0.00 | 40 | 1015.7 |
| 20260507185524 | 16 | 346 | 8.0 | 12.9 | 0.00 | 0.00 | 0.00 | 38 | 1015.8 |
| 20260507184544 | 16 | 263 | 8.0 | 14.5 | 0.00 | 0.00 | 0.00 | 41 | 1015.8 |
| 20260507183524 | 16 | 9 | 9.7 | 14.5 | 0.00 | 0.00 | 0.00 | 39 | 1015.8 |
| 20260507182524 | 17 | 84 | 4.8 | 9.7 | 0.00 | 0.00 | 0.00 | 39 | 1015.9 |
| 20260507181524 | 16 | 332 | 6.4 | 12.9 | 0.00 | 0.00 | 0.00 | 41 | 1015.8 |
| 20260507180544 | 15 | 358 | 8.0 | 17.7 | 0.00 | 0.00 | 0.00 | 40 | 1016.2 |
| 20260507175525 | 15 | 5 | 9.7 | 17.7 | 0.00 | 0.00 | 0.00 | 42 | 1016.1 |
| 20260507174524 | 15 | 1 | 8.0 | 14.5 | 0.00 | 0.00 | 0.00 | 43 | 1016.2 |
| 20260507173524 | 15 | 352 | 11.3 | 19.3 | 0.00 | 0.00 | 0.00 | 40 | 1016.4 |
| 20260507172524 | 15 | 354 | 6.4 | 12.9 | 0.00 | 0.00 | 0.00 | 41 | 1016.6 |
| 20260507171524 | 15 | 354 | 9.7 | 16.1 | 0.00 | 0.00 | 0.00 | 42 | 1016.7 |
| 20260507170525 | 15 | 250 | 4.8 | 9.7 | 0.00 | 0.00 | 0.00 | 40 | 1016.8 |
| 20260507165524 | 15 | 357 | 9.7 | 22.5 | 0.00 | 0.00 | 0.00 | 42 | 1016.9 |
| 20260507164525 | 15 | 278 | 6.4 | 11.3 | 0.00 | 0.00 | 0.00 | 42 | 1016.9 |
| 20260507163545 | 13 | 7 | 8.0 | 16.1 | 0.00 | 0.00 | 0.00 | 43 | 1017.0 |
| 20260507162524 | 13 | 343 | 9.7 | 16.1 | 0.00 | 0.00 | 0.00 | 44 | 1017.0 |
| 20260507161545 | 15 | 326 | 8.0 | 19.3 | 0.00 | 0.00 | 0.00 | 42 | 1017.0 |
| 20260507160525 | 13 | 5 | 9.7 | 17.7 | 0.00 | 0.00 | 0.00 | 43 | 1017.0 |
| 20260507155526 | 15 | 327 | 8.0 | 14.5 | 0.00 | 0.00 | 0.00 | 42 | 1017.0 |
| 20260507154605 | 15 | 291 | 6.4 | 11.3 | 0.00 | 0.00 | 0.00 | 41 | 1017.0 |
| 20260507153524 | 14 | 6 | 8.0 | 25.7 | 0.00 | 0.00 | 0.00 | 42 | 1017.1 |
| 20260507152525 | 13 | 241 | 8.0 | 12.9 | 0.00 | 0.00 | 0.00 | 41 | 1017.1 |
| 20260507151525 | 13 | 296 | 8.0 | 16.1 | 0.00 | 0.00 | 0.00 | 41 | 1017.1 |
| 20260507150525 | 13 | 346 | 6.4 | 12.9 | 0.00 | 0.00 | 0.00 | 45 | 1017.0 |
| 20260507145525 | 13 | 9 | 8.0 | 17.7 | 0.00 | 0.00 | 0.00 | 44 | 1017.0 |
| 20260507144525 | 13 | 9 | 6.4 | 11.3 | 0.00 | 0.00 | 0.00 | 45 | 1017.0 |
| 20260507143524 | 12 | 350 | 8.0 | 12.9 | 0.00 | 0.00 | 0.00 | 46 | 1017.0 |
| 20260507142545 | 13 | 323 | 6.4 | 14.5 | 0.00 | 0.00 | 0.00 | 45 | 1017.0 |
| 20260507141525 | 12 | 346 | 8.0 | 12.9 | 0.00 | 0.00 | 0.00 | 44 | 1017.0 |
| 20260507140546 | 12 | 353 | 6.4 | 14.5 | 0.00 | 0.00 | 0.00 | 45 | 1016.9 |
| 20260507135525 | 12 | 321 | 8.0 | 12.9 | 0.00 | 0.00 | 0.00 | 45 | 1017.0 |
| 20260507134525 | 12 | 277 | 4.8 | 9.7 | 0.00 | 0.00 | 0.00 | 48 | 1016.9 |
| 20260507133525 | 12 | 235 | 4.8 | 8.0 | 0.00 | 0.00 | 0.00 | 51 | 1016.9 |
| 20260507132605 | 12 | 245 | 3.2 | 6.4 | 0.00 | 0.00 | 0.00 | 55 | 1017.0 |
| 20260507131525 | 12 | 288 | 3.2 | 6.4 | 0.00 | 0.00 | 0.00 | 57 | 1016.9 |
| 20260507130525 | 12 | 274 | 1.6 | 4.8 | 0.00 | 0.00 | 0.00 | 59 | 1016.9 |
| 20260507125525 | 11 | 271 | 1.6 | 4.8 | 0.00 | 0.00 | 0.00 | 62 | 1016.9 |
| 20260507124525 | 11 | 5 | 3.2 | 8.0 | 0.00 | 0.00 | 0.00 | 64 | 1016.9 |
| 20260507123525 | 9 | 257 | 0.0 | 3.2 | 0.00 | 0.00 | 0.00 | 73 | 1016.8 |
| 20260507122525 | 8 | 0.0 | 0.0 | 0.00 | 0.00 | 0.00 | 90 | 1016.8 | |
| 20260507121525 | 7 | 0.0 | 0.0 | 0.00 | 0.00 | 0.00 | 95 | 1016.8 | |
| 20260507120626 | 6 | 0.0 | 0.0 | 0.00 | 0.00 | 0.00 | 95 | 1016.7 | |
| 20260507115525 | 5 | 0.0 | 0.0 | 0.00 | 0.00 | 0.00 | 95 | 1016.7 | |
| 20260507114525 | 4 | 0.0 | 0.0 | 0.00 | 0.00 | 0.00 | 95 | 1016.7 | |
| 20260507113525 | 3 | 0.0 | 0.0 | 0.00 | 0.00 | 0.00 | 96 | 1016.7 | |
| 20260507112525 | 2 | 0.0 | 0.0 | 0.00 | 0.00 | 0.00 | 96 | 1016.7 | |
| 20260507111525 | 2 | 0.0 | 0.0 | 0.00 | 0.00 | 0.00 | 96 | 1016.6 | |
| 20260507110525 | 2 | 0.0 | 0.0 | 0.00 | 0.00 | 0.00 | 96 | 1016.7 | |
| 20260507105525 | 2 | 0.0 | 0.0 | 0.00 | 0.00 | 0.00 | 96 | 1016.6 | |
| 20260507104526 | 2 | 0.0 | 0.0 | 0.00 | 0.00 | 0.00 | 96 | 1016.5 | |
| 20260507103525 | 2 | 0.0 | 0.0 | 0.00 | 0.00 | 0.00 | 96 | 1016.4 | |
| 20260507102525 | 2 | 0.0 | 0.0 | 0.00 | 0.00 | 0.00 | 96 | 1016.3 | |
| 20260507101546 | 2 | 0.0 | 0.0 | 0.00 | 0.00 | 0.00 | 96 | 1016.3 | |
| 20260507100525 | 2 | 0.0 | 0.0 | 0.00 | 0.00 | 0.00 | 96 | 1016.2 | |
| 20260507095525 | 2 | 0.0 | 0.0 | 0.00 | 0.00 | 0.00 | 96 | 1016.3 | |
| 20260507094525 | 2 | 0.0 | 0.0 | 0.00 | 0.00 | 0.00 | 96 | 1016.3 | |
| 20260507093526 | 3 | 0.0 | 0.0 | 0.00 | 0.00 | 0.00 | 96 | 1016.2 | |
| 20260507092525 | 3 | 0.0 | 0.0 | 0.00 | 0.00 | 0.00 | 96 | 1016.3 | |
| 20260507091525 | 3 | 0.0 | 0.0 | 0.00 | 0.00 | 0.00 | 96 | 1016.3 | |
| 20260507090525 | 3 | 0.0 | 0.0 | 0.00 | 0.00 | 0.00 | 96 | 1016.3 | |
| 20260507085525 | 3 | 0.0 | 0.0 | 0.00 | 0.00 | 0.00 | 96 | 1016.2 | |
| 20260507084526 | 3 | 0.0 | 0.0 | 0.00 | 0.00 | 0.00 | 97 | 1016.2 | |
| 20260507083526 | 3 | 0.0 | 0.0 | 0.00 | 0.00 | 0.00 | 97 | 1016.1 | |
| 20260507082525 | 3 | 0.0 | 0.0 | 0.00 | 0.00 | 0.00 | 96 | 1015.9 | |
| 20260507081526 | 4 | 284 | 0.0 | 1.6 | 0.00 | 0.03 | 0.00 | 97 | 1015.9 |
| 20260507080526 | 4 | 0.0 | 0.0 | 0.00 | 0.03 | 0.00 | 96 | 1015.9 | |
| 20260507075546 | 4 | 344 | 0.0 | 3.2 | 0.00 | 0.03 | 0.00 | 97 | 1015.8 |
| 20260507074526 | 4 | 17 | 1.6 | 3.2 | 0.00 | 0.03 | 0.00 | 97 | 1015.8 |
| 20260507073525 | 4 | 7 | 0.0 | 4.8 | 0.00 | 0.03 | 0.00 | 97 | 1015.9 |
| 20260507072525 | 4 | 296 | 0.0 | 3.2 | 0.00 | 0.03 | 0.00 | 96 | 1015.9 |
| 20260507071607 | 4 | 0.0 | 0.0 | 0.00 | 0.03 | 0.00 | 96 | 1015.8 | |
| 20260507070525 | 4 | 0.0 | 0.0 | 0.00 | 0.03 | 0.00 | 96 | 1015.8 | |
| 20260507065525 | 4 | 0.0 | 0.0 | 0.00 | 0.08 | 0.00 | 96 | 1015.8 | |
| 20260507064606 | 4 | 0.0 | 0.0 | 0.00 | 0.08 | 0.00 | 96 | 1015.9 | |
| 20260507063545 | 4 | 0.0 | 0.0 | 0.00 | 0.13 | 0.00 | 96 | 1015.9 | |
| 20260507062526 | 4 | 0.0 | 0.0 | 0.00 | 0.15 | 0.00 | 96 | 1016.0 | |
| 20260507061626 | 4 | 0.0 | 0.0 | 0.00 | 0.23 | 0.00 | 95 | 1016.1 | |
| 20260507060525 | 4 | 0.0 | 0.0 | 0.00 | 0.23 | 0.00 | 95 | 1016.1 | |
| 20260507055526 | 4 | 0.0 | 0.0 | 0.00 | 0.23 | 0.00 | 95 | 1016.1 | |
| 20260507054526 | 4 | 0.0 | 0.0 | 0.00 | 0.23 | 0.00 | 95 | 1016.1 | |
| 20260507053525 | 5 | 0.0 | 0.0 | 0.00 | 0.23 | 0.00 | 95 | 1016.2 | |
| 20260507052526 | 5 | 0.0 | 0.0 | 0.00 | 0.25 | 0.00 | 95 | 1016.1 | |
| 20260507051525 | 5 | 0.0 | 0.0 | 0.00 | 0.28 | 0.00 | 94 | 1016.0 | |
| 20260507050526 | 5 | 0.0 | 0.0 | 0.00 | 0.33 | 0.00 | 94 | 1016.0 | |
| 20260507045546 | 5 | 0.0 | 0.0 | 0.00 | 0.36 | 0.00 | 94 | 1016.0 | |
| 20260507044526 | 5 | 0.0 | 0.0 | 0.00 | 0.38 | 0.00 | 94 | 1016.1 | |
| 20260507043525 | 5 | 0.0 | 0.0 | 0.00 | 0.43 | 0.00 | 93 | 1016.1 | |
| 20260507042526 | 5 | 0.0 | 0.0 | 0.00 | 0.51 | 0.00 | 93 | 1016.1 | |
| 20260507041526 | 5 | 0.0 | 0.0 | 0.00 | 0.61 | 0.00 | 93 | 1016.1 | |
| 20260507040526 | 5 | 0.0 | 0.0 | 0.00 | 0.76 | 0.00 | 92 | 1016.1 | |
| 20260507035526 | 6 | 0.0 | 0.0 | 0.00 | 0.91 | 0.91 | 92 | 1016.0 | |
| 20260507034526 | 6 | 0.0 | 0.0 | 0.00 | 0.97 | 0.91 | 92 | 1016.0 | |
| 20260507033526 | 6 | 0.0 | 0.0 | 0.00 | 1.02 | 0.91 | 91 | 1016.0 | |
| 20260507032526 | 6 | 0.0 | 0.0 | 0.00 | 1.09 | 0.91 | 90 | 1015.9 | |
| 20260507031526 | 6 | 0.0 | 0.0 | 0.00 | 1.14 | 0.91 | 89 | 1015.9 | |
| 20260507030546 | 6 | 0.0 | 0.0 | 0.00 | 1.30 | 0.91 | 89 | 1015.9 | |
| 20260507025526 | 6 | 0.0 | 0.0 | 0.00 | 1.40 | 0.91 | 86 | 1015.9 | |
| 20260507024525 | 6 | 0.0 | 0.0 | 0.00 | 1.45 | 0.91 | 85 | 1015.9 | |
| 20260507023526 | 7 | 0.0 | 0.0 | 0.00 | 1.45 | 0.91 | 85 | 1015.9 | |
| 20260507022526 | 7 | 0.0 | 0.0 | 0.00 | 1.47 | 0.91 | 85 | 1015.8 | |
| 20260507021526 | 7 | 0.0 | 0.0 | 0.00 | 1.50 | 0.91 | 85 | 1015.8 |